Location: Newark
(33.6439°N, 114.9881°W)
Time: 10:02:56
(UTC+00:00)

A-11 Canister half - Pass Details

Date: 30 August 2019
Orbit: 1527 x 1682 km, 47.3° (Epoch: 15 September)

Event Time Altitude Azimuth Distance (km) Brightness Sun altitude
Rises 17:38:23 0° 249° (WSW) 4,778 11.4 52.6°
Reaches altitude 10° 17:41:30 10° 253° (WSW) 3,815 11.0 53.1°
Maximum altitude 17:51:08 60° 332° (NNW) 1,836 9.9 54.7°
Drops below altitude 10° 18:01:05 10° 51° (NE) 3,930 11.4 56.3°
Sets 18:04:22 0° 56° (NE) 4,929 11.8 56.8°
